Location: Baia Mare
(47.6567°N, 23.5850°E)
Time: 12:40:46
(UTC+02:00)

ISS - Pass Details

Date: 06 January 2019
Orbit: 404 x 407 km, 51.6° (Epoch: 16 January)

Event Time Altitude Azimuth Distance (km) Brightness Sun altitude
Exits shadow 06:23:41 45° 335° (NNW) 571 -3.4 -17.7°
Maximum altitude 06:24:17 52° 15° (NNE) 513 -3.4 -17.6°
Drops below altitude 10° 06:27:31 10° 93° (E) 1,469 0.2 -17.1°
Sets 06:29:37 0° 98° (E) 2,327 1.8 -16.7°
